{"data":{"norad_id":68305,"epoch":"2026-05-25T01:31:58.584000Z","epoch_age_seconds":69807,"freshness":"FRESH","line1":"1 68305U 26057M   26145.06387250  .00052704  00000+0  96374-3 0  9990","line2":"2 68305  97.2843 270.9289 0002043  83.2283 276.9200 15.49202699 10283","mean_motion":15.49202699,"eccentricity":0.0002043,"inclination_deg":97.2843,"raan_deg":270.9289,"arg_perigee_deg":83.2283,"mean_anomaly_deg":276.92,"bstar":0.00096374,"rev_number":1028,"period_min":92.951038681349,"perigee_km":417.66853123824,"apogee_km":420.44586478755,"semimajor_km":6797.1941980129,"source":"CELESTRAK","updated_at":"2026-05-25T13:38:21.917871Z"}}